Flag for China Weather past 2 weeks in Changsha, Hunan, China

Now
72 °F

Fog.


Feels Like: 71 °F
Forecast: 72 / 83 °F
Wind: 1 mph from North

Location: Changsha

Current Time: Jul 5, 2015 at 8:42:15 AM

Latest Report: Jul 5, 2015 at 8:00 AM


Visibility: 2 mi

Pressure: 29.77 "Hg

Humidity: 83%

Dew point: 66 °F

Location of ChangshaLocation

Historic Weather in Changsha — Graph

°F

Changsha temperature yesterday

Maximum temperature yesterday: 75 °F (at 12:00 AM)
Minimum temperature yesterday: 68 °F (at 4:00 PM)
Average temperature yesterday: 72 °F

Past Weeks' High & Low Weather Summary

 TemperatureHumidityPressure
High99 °F (Jun 27, 2:00 PM)94% (Jun 21, 2:00 AM)29.77 "Hg (Jun 21, 2:00 AM)
Low68 °F (Jul 4, 4:00 PM)42% (Jun 27, 2:00 PM)29.47 "Hg (Jun 26, 5:00 PM)
Average83 °F73%29.61 "Hg
* Reported Jun 20 7:00 AM — Jul 5 7:00 AM, Changsha, Weather by CustomWeather, © 2015

Note: Actual official high and low records may vary slightly from our data, if they occured in-between our weather recording intervals... More about our weather records

Advertising

Changsha weather history for previous 24 hours

 ConditionsComfort  
Time TempWeatherWind HumidityBarometerVisibility
7:00 AM
Sun, Jul 5
70 °FFog.1 mph88%29.77 "Hg3 mi
6:00 AM70 °FFog.No wind88%29.74 "Hg3 mi
5:00 AM70 °FLight rain. Mostly cloudy.1 mph88%29.74 "Hg4 mi
4:00 AM70 °FFog.1 mph88%29.74 "Hg3 mi
3:00 AM70 °FFog.1 mph88%29.74 "Hg2 mi
2:00 AM70 °FPassing clouds.1 mph88%29.74 "Hg4 mi
1:00 AM68 °FPassing clouds.3 mph94%29.77 "Hg4 mi
12:00 AM70 °FPassing clouds.3 mph88%29.77 "Hg4 mi
11:00 PM
Sat, Jul 4
70 °FPassing clouds.3 mph88%29.77 "Hg4 mi
10:00 PM70 °FFog.1 mph88%29.77 "Hg3 mi
9:00 PM70 °FPassing clouds.3 mph83%29.77 "Hg4 mi
8:00 PM70 °FLight rain. Passing clouds.No wind83%29.74 "Hg4 mi
7:00 PM68 °FLight rain. Fog.3 mph88%29.74 "Hg2 mi
6:00 PM70 °FLight rain. Partly sunny.8 mph78%29.74 "Hg4 mi
5:00 PM70 °FLight rain. Fog.6 mph83%29.74 "Hg3 mi
4:00 PM68 °FLight rain. Fog.10 mph88%29.71 "Hg3 mi
3:00 PM73 °FLight rain. Partly sunny.13 mph74%29.71 "Hg5 mi
2:00 PM73 °FPartly sunny.13 mph74%29.71 "HgN/A
1:00 PM75 °FPartly sunny.10 mph69%29.68 "HgN/A
12:00 PM75 °FScattered clouds.10 mph69%29.71 "HgN/A
11:00 AM75 °FPassing clouds.10 mph69%29.68 "HgN/A
10:00 AM73 °FScattered clouds.10 mph74%29.68 "HgN/A
9:00 AM73 °FScattered clouds.10 mph74%29.68 "HgN/A
8:00 AM73 °FScattered clouds.3 mph78%29.68 "Hg5 mi
Weather by CustomWeather, © 2015

See weather overviewHow to use our weather pages